DW8548 Weather Reports


time (UTC)temp
C
wind
direction
speed
KPH
gust
KPH
rain 1hr
cm
rain 24hr
cm
rain mn
cm
humidity
%
barometer
mb
20260901011603 15 76 1.6 9.7 0.00 0.00 0.00 67 1024.9
20260901010115 15 0 1.6 6.4 0.00 0.00 0.00 70 1024.9
20260901004606 14 0 1.6 8.0 0.00 0.00 0.00 73 1024.8
20260901003110 12 0 0.0 4.8 0.00 0.00 0.00 80 1024.5
20260901001604 11 0 0.0 6.4 0.00 0.00 0.00 84 1024.6
20260901000113 11 0 1.6 6.4 0.00 0.00 0.00 88 1024.5
20260831234601 10 103 0.0 3.2 0.00 0.00 0.00 90 1024.3
20260831233125 9 0 0.0 1.6 0.00 0.00 0.00 91 1024.4
20260831231608 8 0 0.0 0.0 0.00 0.00 0.00 91 1024.3
20260831230115 8 0 0.0 0.0 0.00 0.00 0.00 91 1024.0
20260831224601 7 0 0.0 0.0 0.00 0.00 0.00 91 1023.8
20260831223112 7 0 0.0 0.0 0.00 0.00 0.00 91 1023.5
20260831221601 7 0 0.0 0.0 0.00 0.00 0.00 90 1023.4
20260831220059 7 0 0.0 0.0 0.00 0.00 0.00 90 1023.5
20260831214611 7 0 0.0 0.0 0.00 0.00 0.00 90 1023.3
20260831213110 7 0 0.0 0.0 0.00 0.00 0.00 89 1023.2
20260831211607 8 0 0.0 0.0 0.00 0.00 0.00 90 1023.1
20260831210100 8 0 0.0 0.0 0.00 0.00 0.00 89 1023.1
20260831204609 8 0 0.0 0.0 0.00 0.00 0.00 89 1022.9
20260831203116 9 0 0.0 0.0 0.00 0.00 0.00 88 1022.6
20260831201607 8 0 0.0 0.0 0.00 0.00 0.00 87 1022.6
20260831200110 9 0 0.0 0.0 0.00 0.00 0.00 87 1022.4
20260831194642 10 0 0.0 0.0 0.00 0.00 0.00 87 1022.4
20260831193106 9 0 0.0 0.0 0.00 0.00 0.00 86 1022.3
20260831191607 10 0 0.0 0.0 0.00 0.00 0.00 85 1022.3
20260831190109 10 0 0.0 0.0 0.00 0.00 0.00 84 1022.3
20260831184607 10 0 0.0 0.0 0.00 0.00 0.00 82 1022.4
20260831183110 11 0 0.0 1.6 0.00 0.00 0.00 81 1022.4
20260831181610 11 0 0.0 1.6 0.00 0.00 0.00 80 1022.5
20260831180126 11 0 0.0 3.2 0.00 0.00 0.00 79 1022.6
20260831174603 12 0 0.0 4.8 0.00 0.00 0.00 79 1022.6
20260831173104 11 0 0.0 4.8 0.00 0.00 0.00 79 1022.6
20260831171605 12 0 0.0 1.6 0.00 0.00 0.00 79 1022.7
20260831164604 12 171 0.0 6.4 0.00 0.00 0.00 79 1022.8
20260831163103 12 0 1.6 6.4 0.00 0.00 0.00 79 1022.8
20260831161606 12 131 1.6 8.0 0.00 0.00 0.00 79 1022.9
20260831160106 12 0 0.0 11.3 0.00 0.00 0.00 79 1022.9
20260831154634 12 0 1.6 9.7 0.00 0.00 0.00 81 1023.0
20260831153108 11 236 1.6 17.7 0.00 0.00 0.00 84 1023.1
20260831151622 11 127 1.6 16.1 0.00 0.00 0.00 86 1023.1
20260831150109 12 209 4.8 14.5 0.00 0.00 0.00 88 1023.0
20260831144607 12 125 3.2 22.5 0.00 0.00 0.00 89 1022.9
20260831143108 13 72 3.2 9.7 0.00 0.00 0.00 89 1022.8
20260831141606 13 0 1.6 11.3 0.00 0.00 0.00 90 1022.4
20260831140106 13 195 1.6 12.9 0.00 0.00 0.00 89 1022.2
20260831134606 13 211 3.2 14.5 0.00 0.00 0.00 89 1022.0
20260831133108 14 0 1.6 11.3 0.00 0.00 0.00 89 1021.9
20260831131614 14 130 3.2 14.5 0.00 0.00 0.00 89 1021.5
20260831130114 15 264 3.2 14.5 0.00 0.00 0.00 89 1021.2
20260831124609 15 187 1.6 14.5 0.00 0.00 0.00 89 1021.0
20260831123104 15 0 0.0 6.4 0.00 0.00 0.00 89 1020.7
20260831121604 16 0 1.6 6.4 0.00 0.00 0.00 88 1020.6
20260831120114 16 236 1.6 11.3 0.00 0.00 0.00 86 1020.5
20260831114611 17 240 4.8 17.7 0.00 0.00 0.00 80 1020.3
20260831113104 17 250 1.6 12.9 0.00 0.00 0.00 78 1020.1
20260831111600 17 294 3.2 11.3 0.00 0.00 0.00 77 1020.0
20260831110111 17 279 1.6 11.3 0.00 0.00 0.00 78 1019.9
20260831104613 17 272 3.2 8.0 0.00 0.00 0.00 77 1019.9
20260831103104 17 248 0.0 12.9 0.00 0.00 0.00 77 1019.8
20260831101604 17 259 3.2 12.9 0.00 0.00 0.00 76 1019.7
20260831100124 17 247 3.2 12.9 0.00 0.00 0.00 77 1019.6
20260831094602 17 256 3.2 6.4 0.00 0.00 0.00 78 1019.5
20260831093108 18 273 3.2 12.9 0.00 0.00 0.00 77 1019.3
20260831091604 18 318 1.6 8.0 0.00 0.00 0.00 77 1019.0
20260831090107 18 227 3.2 14.5 0.00 0.00 0.00 74 1018.9
20260831084611 18 255 3.2 11.3 0.00 0.00 0.00 71 1018.8
20260831083106 19 331 3.2 9.7 0.00 0.00 0.00 67 1018.7
20260831081602 20 271 1.6 14.5 0.00 0.00 0.00 66 1018.6
20260831080108 20 244 6.4 16.1 0.00 0.00 0.00 64 1018.8
20260831074605 20 304 3.2 12.9 0.00 0.00 0.00 67 1018.8
20260831073104 20 282 4.8 14.5 0.00 0.00 0.00 69 1018.8
20260831071558 20 266 6.4 17.7 0.00 0.00 0.00 68 1018.9
20260831070115 21 257 4.8 12.9 0.00 0.00 0.00 64 1018.7
20260831064607 21 252 4.8 17.7 0.00 0.00 0.00 66 1018.7
20260831063105 21 246 3.2 14.5 0.00 0.00 0.00 66 1018.6
20260831061604 21 292 4.8 16.1 0.00 0.00 0.00 66 1018.5
20260831060109 21 225 4.8 12.9 0.00 0.00 0.00 67 1018.4
20260831054606 22 291 3.2 9.7 0.00 0.00 0.00 66 1018.3
20260831053112 21 298 4.8 14.5 0.00 0.00 0.00 65 1018.2
20260831051604 21 250 4.8 14.5 0.00 0.00 0.00 68 1018.4
20260831050115 20 261 4.8 17.7 0.00 0.00 0.00 69 1018.5
20260831044612 21 308 3.2 14.5 0.00 0.00 0.00 72 1018.5
20260831043102 21 275 3.2 12.9 0.00 0.00 0.00 71 1018.3
20260831041605 21 337 3.2 12.9 0.00 0.00 0.00 70 1018.3
20260831040107 21 0 3.2 12.9 0.00 0.00 0.00 68 1018.4
20260831034608 21 273 1.6 11.3 0.00 0.00 0.00 72 1018.5
20260831033107 21 246 3.2 9.7 0.00 0.00 0.00 72 1018.6
20260831031604 21 312 1.6 12.9 0.00 0.00 0.00 72 1018.9
20260831030108 20 48 1.6 12.9 0.00 0.00 0.00 75 1018.8
20260831024626 20 327 1.6 9.7 0.00 0.00 0.00 74 1018.8
20260831023110 20 297 3.2 12.9 0.00 0.00 0.00 75 1018.9
20260831021605 19 336 3.2 11.3 0.00 0.00 0.00 76 1018.6
20260831020111 19 327 1.6 11.3 0.00 0.00 0.00 77 1018.6
20260831014624 18 273 1.6 8.0 0.00 0.00 0.00 77 1018.8
20260831013100 19 0 0.0 6.4 0.00 0.00 0.00 78 1018.8